SL-16 DEB, 35420

Orbit data source: Space-Track

SL-16 DEB, 35420 is space debris in SSO originally from a launch on Mon, 10 Dec 2001 UTC launched from the Tyuratam Missile And Space Complex (TTMTR). Debris objects in space refer to the collection of defunct objects orbiting the Earth. Examples of debris include non-operational satellites, rocket bodies, and fragments generated from explosions, collisions, or faulty payload assembly.

Loading next visibility...
Identifier
35420, 2001-056M
Orbit
SSO
Country
Flag of CISCIS
Related business
Manufacturer
Unknown
Mission
Spacecraft
Bus & Motor
Unknown
Mass
Unknown
Launch date (UTC)
2001-12-10 (24 years ago)
Launch vehicle
Unknown
Launch site
Tyuratam Missile And Space Complex (TTMTR)
Object type
Payload
Rocket body
Debris
Shape & HBR
Unknown
Radar Cross Section
Small (<0.1 m²)

Expand to show TLE details & history
Last TLE update: 2 days ago

TLE from 2 days ago
0 SL-16 DEB
1 35420U 01056M   25259.34661300  .00000475  00000-0  52237-3 0  9990
2 35420  99.4212  31.0586 0023546 264.4265 121.9806 13.77366411189076
Epoch: 2025-09-16T08:19Z
TLE epoch observation values (Epoch: 2025-09-16T08:19:07.363Z)
Latitude
26.28362°
Longitude
-93.93641°
Altitude
985.564 km
Speed
7.357 km/s
True Right ascension
01h 45m 31s
True Declination
26° 09' 06"
Sunlit
Object was in full shadow at epoch
Visualization orbit readout
Latitude
Unknown
Longitude
Unknown
Altitude
Unknown
Speed
Unknown
Apparent Right ascension
Unknown
Apparent Declination
Unknown
Sunlit
N/A
Visualization observer readout
Local Sidereal Time
18:27:34
Azimuth
Unknown
Elevation
Unknown
Doppler factor
Unknown
Orbital elements
Apogee altitude
987.796 km
Perigee altitude
953.19 km
Semi-major axis
7,348.63 km
Eccentricity
0.00235
Inclination
99.4212°
RAAN
31.0586°
Arg. of periapsis
264.4265°
True anomaly
122.20911°
Mean anomaly
121.9806°
Eccentric anomaly
122.09489°
Mean motion
3.44535 °/min
Orbital period
104.49 mins
BSTAR
0.00052237
Loading maneuver chart data...
Computing Atmospheric mass density...
Loading historical data...
Loading historical data...
Loading historical data...
Loading historical data...
Loading historical data...
Loading historical data...
Loading historical data...

Documentation

Showing up to 5 results
|